This is the latest recevied weather packets stored in our database for station/object DG4MND-4. If no packets are shown the sender has not sent any weather packets the latest 10 day(s).
| Time | Temp. | Humidity | Pressure | Rain* | Wind** | Luminosity | Snow |
|---|---|---|---|---|---|---|---|
| 1777859434 | 11.67° C | 76% | 1015.1 hPa | 0 mm | - | - | - |
| 1777858831 | 11.67° C | 76% | 1015.1 hPa | 0 mm | - | - | - |
| 1777858230 | 11.67° C | 76% | 1015.1 hPa | 0 mm | - | - | - |
| 1777857623 | 11.67° C | 76% | 1015.1 hPa | 0 mm | - | - | - |
| 1777857023 | 11.67° C | 76% | 1015.1 hPa | 0 mm | - | - | - |
| 1777856416 | 11.67° C | 75% | 1015 hPa | 0 mm | - | - | - |
| 1777855873 | 11.67° C | 77% | 1015.1 hPa | 0 mm | - | - | - |
| 1777855270 | 11.11° C | 77% | 1015.2 hPa | 0 mm | - | - | - |
| 1777854666 | 11.11° C | 77% | 1015.2 hPa | 0 mm | - | - | - |
| 1777854066 | 11.11° C | 77% | 1015.3 hPa | 0 mm | - | - | - |
| 1777853462 | 11.11° C | 76% | 1015.3 hPa | 0 mm | - | - | - |
| 1777852855 | 11.67° C | 75% | 1015.3 hPa | 0 mm | - | - | - |
| 1777852253 | 12.22° C | 74% | 1015.4 hPa | 0 mm | - | - | - |
| 1777851649 | 12.22° C | 74% | 1015.6 hPa | 0 mm | - | - | - |
| 1777851046 | 12.78° C | 72% | 1015.6 hPa | 0 mm | - | - | - |
| 1777850442 | 12.78° C | 73% | 1015.5 hPa | 0 mm | - | - | - |
| 1777849838 | 12.78° C | 73% | 1015.4 hPa | 0 mm | - | - | - |
| 1777849235 | 12.78° C | 72% | 1015.4 hPa | 0 mm | - | - | - |
| 1777848632 | 12.78° C | 71% | 1015.6 hPa | 0 mm | - | - | - |
| 1777848028 | 12.22° C | 73% | 1015.4 hPa | 0 mm | - | - | - |
| 1777847425 | 12.22° C | 73% | 1015.2 hPa | 0 mm | - | - | - |
| 1777846824 | 12.22° C | 71% | 1015.3 hPa | 0 mm | - | - | - |
| 1777846217 | 12.22° C | 71% | 1015.3 hPa | 0 mm | - | - | - |
| 1777845678 | 12.78° C | 70% | 1015.1 hPa | 0 mm | - | - | - |
| 1777845071 | 12.78° C | 71% | 1015 hPa | 0 mm | - | - | - |
* Rain latest hour (hover to see other rain measurements)
** Current wind speed in m/s (hover to see current wind gust speed)